| time (UTC) | temp F | wind direction | speed MPH | gust MPH | rain 1hr in | rain 24hr in | rain mn in | humidity % | barometer mb |
| 20260506084559 | 76 | 118 | 2.0 | 2.0 | 0.00 | 0.00 | 0.00 | 99 | 1013.1 |
| 20260506084055 | 76 | 180 | 2.0 | 4.0 | 0.00 | 0.00 | 0.00 | 99 | 1013.3 |
| 20260506083552 | 76 | 199 | 0.0 | 4.0 | 0.00 | 0.00 | 0.00 | 98 | 1013.4 |
| 20260506083050 | 76 | 117 | 0.0 | 3.0 | 0.00 | 0.00 | 0.00 | 98 | 1013.4 |
| 20260506082546 | 77 | 188 | 0.0 | 5.0 | 0.00 | 0.00 | 0.00 | 98 | 1013.3 |
| 20260506082042 | 77 | 184 | 0.0 | 5.0 | 0.00 | 0.00 | 0.00 | 98 | 1013.1 |
| 20260506081541 | 77 | 168 | 2.0 | 7.0 | 0.00 | 0.00 | 0.00 | 98 | 1013.1 |
| 20260506081037 | 77 | 171 | 0.0 | 5.0 | 0.00 | 0.00 | 0.00 | 98 | 1013.2 |
| 20260506080535 | 77 | 196 | 2.0 | 5.0 | 0.00 | 0.00 | 0.00 | 98 | 1013.3 |
| 20260506073519 | 77 | 235 | 2.0 | 4.0 | 0.00 | 0.00 | 0.00 | 97 | 1013.8 |
| 20260506073016 | 77 | 294 | 2.0 | 4.0 | 0.00 | 0.00 | 0.00 | 97 | 1013.9 |
| 20260506072513 | 77 | 235 | 0.0 | 3.0 | 0.00 | 0.00 | 0.00 | 97 | 1013.9 |
| 20260506072010 | 77 | 219 | 2.0 | 7.0 | 0.00 | 0.00 | 0.00 | 97 | 1013.9 |
| 20260506071508 | 77 | 197 | 2.0 | 4.0 | 0.00 | 0.00 | 0.00 | 97 | 1013.7 |
| 20260506071005 | 77 | 248 | 0.0 | 4.0 | 0.00 | 0.00 | 0.00 | 97 | 1014.0 |
| 20260506070503 | 77 | 212 | 1.0 | 4.0 | 0.00 | 0.00 | 0.00 | 97 | 1014.0 |
| 20260506062440 | 77 | 190 | 1.0 | 4.0 | 0.00 | 0.00 | 0.00 | 97 | 1013.8 |
| 20260506061935 | 77 | 89 | 2.0 | 4.0 | 0.00 | 0.00 | 0.00 | 97 | 1013.8 |
| 20260506061432 | 77 | 221 | 1.0 | 3.0 | 0.00 | 0.00 | 0.00 | 97 | 1013.9 |
| 20260506060930 | 77 | 135 | 3.0 | 4.0 | 0.00 | 0.00 | 0.00 | 97 | 1013.9 |
| 20260506060428 | 77 | 164 | 0.0 | 4.0 | 0.00 | 0.00 | 0.00 | 97 | 1013.8 |
| 20260506051400 | 77 | 188 | 3.0 | 7.0 | 0.00 | 0.00 | 0.00 | 96 | 1014.2 |
| 20260506050857 | 77 | 201 | 1.0 | 3.0 | 0.00 | 0.00 | 0.00 | 96 | 1014.0 |
| 20260506050355 | 77 | 157 | 3.0 | 10.0 | 0.00 | 0.00 | 0.00 | 96 | 1014.1 |
| 20260506044845 | 77 | 275 | 0.0 | 7.0 | 0.00 | 0.00 | 0.00 | 96 | 1014.1 |
| 20260506044343 | 77 | 187 | 0.0 | 7.0 | 0.00 | 0.00 | 0.00 | 96 | 1014.0 |
| 20260506043840 | 77 | 202 | 2.0 | 7.0 | 0.00 | 0.00 | 0.00 | 96 | 1014.0 |
| 20260506043337 | 77 | 113 | 2.0 | 13.0 | 0.00 | 0.00 | 0.00 | 96 | 1013.9 |
| 20260506042835 | 77 | 156 | 2.0 | 11.0 | 0.00 | 0.00 | 0.00 | 96 | 1013.8 |
| 20260506042334 | 77 | 144 | 4.0 | 8.0 | 0.00 | 0.00 | 0.00 | 96 | 1014.0 |
| 20260506041832 | 77 | 158 | 2.0 | 7.0 | 0.00 | 0.00 | 0.00 | 96 | 1013.8 |
| 20260506041329 | 77 | 137 | 1.0 | 11.0 | 0.00 | 0.00 | 0.00 | 96 | 1014.0 |
| 20260506040826 | 77 | 129 | 2.0 | 11.0 | 0.00 | 0.00 | 0.00 | 96 | 1013.9 |
| 20260506040324 | 77 | 163 | 1.0 | 7.0 | 0.00 | 0.00 | 0.00 | 96 | 1013.7 |
| 20260506035820 | 77 | 192 | 1.0 | 4.0 | 0.00 | 0.00 | 0.00 | 95 | 1013.7 |
| 20260506035317 | 77 | 162 | 3.0 | 7.0 | 0.00 | 0.00 | 0.00 | 95 | 1013.9 |
| 20260506034814 | 77 | 184 | 3.0 | 10.0 | 0.00 | 0.00 | 0.00 | 95 | 1013.8 |
| 20260506034311 | 77 | 202 | 2.0 | 14.0 | 0.00 | 0.00 | 0.00 | 95 | 1013.7 |
| 20260506033808 | 77 | 143 | 3.0 | 10.0 | 0.00 | 0.00 | 0.00 | 95 | 1013.6 |
| 20260506033305 | 77 | 195 | 3.0 | 13.0 | 0.00 | 0.00 | 0.00 | 95 | 1013.7 |
| 20260506032802 | 77 | 213 | 2.0 | 7.0 | 0.00 | 0.00 | 0.00 | 95 | 1013.4 |
| 20260506032259 | 77 | 138 | 2.0 | 5.0 | 0.00 | 0.00 | 0.00 | 95 | 1013.6 |
| 20260506031755 | 77 | 116 | 5.0 | 9.0 | 0.00 | 0.00 | 0.00 | 95 | 1013.5 |
| 20260506031253 | 77 | 182 | 1.0 | 9.0 | 0.00 | 0.00 | 0.00 | 95 | 1013.5 |
| 20260506030751 | 77 | 135 | 4.0 | 6.0 | 0.00 | 0.00 | 0.00 | 95 | 1013.5 |
| 20260506030248 | 77 | 233 | 2.0 | 4.0 | 0.00 | 0.00 | 0.00 | 95 | 1013.6 |
| 20260506025745 | 77 | 143 | 2.0 | 5.0 | 0.00 | 0.00 | 0.00 | 96 | 1013.5 |
| 20260506025241 | 77 | 201 | 1.0 | 9.0 | 0.00 | 0.00 | 0.00 | 96 | 1013.3 |
| 20260506024738 | 77 | 182 | 2.0 | 4.0 | 0.00 | 0.00 | 0.00 | 96 | 1013.1 |
| 20260506024235 | 77 | 152 | 1.0 | 7.0 | 0.00 | 0.00 | 0.00 | 96 | 1013.1 |
| 20260506023731 | 77 | 205 | 1.0 | 8.0 | 0.00 | 0.00 | 0.00 | 96 | 1013.1 |
| 20260506023228 | 77 | 257 | 2.0 | 5.0 | 0.00 | 0.00 | 0.00 | 96 | 1013.2 |
| 20260506022719 | 77 | 160 | 2.0 | 7.0 | 0.00 | 0.00 | 0.00 | 95 | 1012.9 |
| 20260506022217 | 77 | 124 | 4.0 | 8.0 | 0.00 | 0.00 | 0.00 | 95 | 1012.9 |
| 20260506021715 | 77 | 179 | 1.0 | 4.0 | 0.00 | 0.00 | 0.00 | 95 | 1012.9 |
| 20260506021212 | 77 | 185 | 2.0 | 4.0 | 0.00 | 0.00 | 0.00 | 95 | 1012.7 |
| 20260506020708 | 77 | 191 | 2.0 | 9.0 | 0.00 | 0.00 | 0.00 | 95 | 1012.7 |
| 20260506020206 | 77 | 183 | 2.0 | 5.0 | 0.00 | 0.00 | 0.00 | 95 | 1012.7 |
| 20260506015704 | 77 | 202 | 1.0 | 8.0 | 0.00 | 0.00 | 0.00 | 95 | 1012.4 |
| 20260506015201 | 77 | 273 | 0.0 | 3.0 | 0.00 | 0.00 | 0.00 | 94 | 1012.7 |
| 20260506014658 | 77 | 185 | 2.0 | 7.0 | 0.00 | 0.00 | 0.00 | 94 | 1012.4 |
| 20260506014154 | 78 | 91 | 2.0 | 6.0 | 0.00 | 0.00 | 0.00 | 94 | 1012.4 |
| 20260506013652 | 78 | 249 | 1.0 | 11.0 | 0.00 | 0.00 | 0.00 | 94 | 1012.4 |
| 20260506013149 | 78 | 168 | 2.0 | 5.0 | 0.00 | 0.00 | 0.00 | 94 | 1012.2 |
| 20260506012645 | 78 | 226 | 2.0 | 8.0 | 0.00 | 0.00 | 0.00 | 93 | 1012.2 |
| 20260506012142 | 78 | 184 | 3.0 | 6.0 | 0.00 | 0.00 | 0.00 | 93 | 1012.2 |
| 20260506011639 | 78 | 166 | 3.0 | 8.0 | 0.00 | 0.00 | 0.00 | 93 | 1012.2 |
| 20260506011135 | 78 | 171 | 1.0 | 10.0 | 0.00 | 0.00 | 0.00 | 93 | 1012.0 |
| 20260506010634 | 78 | 196 | 2.0 | 7.0 | 0.00 | 0.00 | 0.00 | 93 | 1012.1 |
| 20260506010131 | 78 | 211 | 1.0 | 8.0 | 0.00 | 0.00 | 0.00 | 92 | 1011.9 |
| 20260506005628 | 78 | 124 | 3.0 | 8.0 | 0.00 | 0.00 | 0.00 | 92 | 1011.7 |
| 20260506005124 | 78 | 198 | 3.0 | 12.0 | 0.00 | 0.00 | 0.00 | 92 | 1011.7 |
| 20260506004621 | 78 | 155 | 2.0 | 11.0 | 0.00 | 0.00 | 0.00 | 92 | 1011.7 |
| 20260506004118 | 78 | 259 | 4.0 | 9.0 | 0.00 | 0.00 | 0.00 | 92 | 1011.9 |
| 20260506003615 | 78 | 229 | 0.0 | 4.0 | 0.00 | 0.00 | 0.00 | 91 | 1011.6 |
| 20260506003111 | 78 | 181 | 3.0 | 6.0 | 0.00 | 0.00 | 0.00 | 92 | 1011.5 |
| 20260506002607 | 79 | 128 | 3.0 | 7.0 | 0.00 | 0.00 | 0.00 | 91 | 1011.7 |
| 20260506002103 | 79 | 216 | 2.0 | 5.0 | 0.00 | 0.00 | 0.00 | 91 | 1011.7 |
| 20260506001559 | 79 | 216 | 4.0 | 10.0 | 0.00 | 0.00 | 0.00 | 91 | 1011.7 |
| 20260506001056 | 79 | 248 | 4.0 | 9.0 | 0.00 | 0.00 | 0.00 | 91 | 1011.5 |
| 20260506000554 | 79 | 163 | 2.0 | 11.0 | 0.00 | 0.00 | 0.00 | 91 | 1011.5 |
| 20260506000051 | 79 | 122 | 1.0 | 7.0 | 0.00 | 0.00 | 0.00 | 90 | 1011.6 |
| 20260505235549 | 79 | 167 | 2.0 | 5.0 | 0.00 | 0.00 | 0.00 | 90 | 1011.8 |
| 20260505235045 | 79 | 258 | 3.0 | 6.0 | 0.00 | 0.00 | 0.00 | 90 | 1011.8 |
| 20260505234543 | 79 | 286 | 5.0 | 8.0 | 0.00 | 0.00 | 0.00 | 90 | 1011.7 |
| 20260505234039 | 79 | 235 | 0.0 | 6.0 | 0.00 | 0.00 | 0.00 | 90 | 1011.6 |
| 20260505233537 | 79 | 242 | 3.0 | 10.0 | 0.00 | 0.00 | 0.00 | 89 | 1011.6 |
| 20260505233034 | 80 | 187 | 2.0 | 6.0 | 0.00 | 0.00 | 0.00 | 89 | 1011.9 |
| 20260505232532 | 80 | 197 | 2.0 | 7.0 | 0.00 | 0.00 | 0.00 | 88 | 1011.8 |
| 20260505232029 | 80 | 200 | 1.0 | 4.0 | 0.00 | 0.00 | 0.00 | 88 | 1011.7 |
| 20260505231526 | 80 | 175 | 1.0 | 5.0 | 0.00 | 0.00 | 0.00 | 88 | 1011.7 |
| 20260505231025 | 80 | 216 | 1.0 | 11.0 | 0.00 | 0.00 | 0.00 | 88 | 1011.5 |
| 20260505230521 | 80 | 205 | 2.0 | 8.0 | 0.00 | 0.00 | 0.00 | 88 | 1012.0 |
| 20260505230018 | 80 | 251 | 4.0 | 15.0 | 0.00 | 0.00 | 0.00 | 87 | 1011.7 |
| 20260505225515 | 80 | 262 | 2.0 | 7.0 | 0.00 | 0.00 | 0.00 | 87 | 1011.7 |
| 20260505225011 | 80 | 292 | 1.0 | 6.0 | 0.00 | 0.00 | 0.00 | 87 | 1011.9 |
| 20260505224508 | 80 | 328 | 1.0 | 6.0 | 0.00 | 0.00 | 0.00 | 87 | 1011.6 |
| 20260505224005 | 80 | 218 | 3.0 | 7.0 | 0.00 | 0.00 | 0.00 | 88 | 1011.5 |
| 20260505223502 | 80 | 239 | 1.0 | 4.0 | 0.00 | 0.00 | 0.00 | 88 | 1011.7 |
| 20260505222958 | 80 | 261 | 3.0 | 4.0 | 0.00 | 0.00 | 0.00 | 88 | 1011.8 |
| 20260505222455 | 80 | 64 | 0.0 | 6.0 | 0.00 | 0.00 | 0.00 | 88 | 1011.8 |
| 20260505221950 | 80 | 254 | 3.0 | 5.0 | 0.00 | 0.00 | 0.00 | 89 | 1011.8 |
| 20260505221448 | 80 | 135 | 3.0 | 8.0 | 0.00 | 0.00 | 0.00 | 89 | 1012.1 |
| 20260505220945 | 80 | 186 | 2.0 | 8.0 | 0.00 | 0.00 | 0.00 | 89 | 1011.9 |
| 20260505220442 | 81 | 189 | 2.0 | 8.0 | 0.00 | 0.00 | 0.00 | 88 | 1011.7 |
| 20260505215939 | 81 | 210 | 2.0 | 10.0 | 0.00 | 0.00 | 0.00 | 88 | 1012.1 |
| 20260505215438 | 81 | 197 | 0.0 | 5.0 | 0.00 | 0.00 | 0.00 | 88 | 1012.2 |
| 20260505214935 | 81 | 225 | 1.0 | 4.0 | 0.00 | 0.00 | 0.00 | 88 | 1012.0 |
| 20260505214433 | 81 | 297 | 1.0 | 5.0 | 0.00 | 0.00 | 0.00 | 88 | 1012.2 |
| 20260505213930 | 81 | 269 | 0.0 | 8.0 | 0.00 | 0.00 | 0.00 | 87 | 1012.5 |
| 20260505213427 | 82 | 233 | 1.0 | 7.0 | 0.00 | 0.00 | 0.00 | 86 | 1012.3 |
| 20260505212923 | 82 | 248 | 2.0 | 6.0 | 0.00 | 0.00 | 0.00 | 86 | 1012.3 |
| 20260505212421 | 82 | 130 | 2.0 | 5.0 | 0.00 | 0.00 | 0.00 | 87 | 1012.2 |
| 20260505211916 | 81 | 272 | 2.0 | 10.0 | 0.00 | 0.00 | 0.00 | 88 | 1012.4 |
| 20260505211414 | 80 | 255 | 5.0 | 6.0 | 0.00 | 0.00 | 0.00 | 89 | 1012.3 |
| 20260505210910 | 80 | 257 | 3.0 | 9.0 | 0.00 | 0.00 | 0.00 | 89 | 1012.6 |
| 20260505210408 | 81 | 254 | 4.0 | 11.0 | 0.00 | 0.00 | 0.00 | 88 | 1012.6 |
| 20260505205905 | 82 | 231 | 4.0 | 8.0 | 0.00 | 0.00 | 0.00 | 87 | 1012.2 |
| 20260505205403 | 81 | 274 | 2.0 | 10.0 | 0.00 | 0.00 | 0.00 | 88 | 1012.6 |
| 20260505204900 | 81 | 269 | 0.0 | 7.0 | 0.00 | 0.00 | 0.00 | 88 | 1012.9 |
| 20260505204357 | 81 | 67 | 0.0 | 8.0 | 0.00 | 0.00 | 0.00 | 88 | 1012.8 |
| 20260505203855 | 82 | 139 | 2.0 | 6.0 | 0.00 | 0.00 | 0.00 | 88 | 1012.8 |
| 20260505203351 | 82 | 233 | 0.0 | 7.0 | 0.00 | 0.00 | 0.00 | 87 | 1013.0 |
| 20260505202847 | 81 | 236 | 0.0 | 5.0 | 0.00 | 0.00 | 0.00 | 88 | 1012.8 |
| 20260505202343 | 80 | 225 | 3.0 | 5.0 | 0.00 | 0.00 | 0.00 | 89 | 1013.1 |
| 20260505201840 | 80 | 228 | 2.0 | 4.0 | 0.00 | 0.00 | 0.00 | 89 | 1013.2 |
| 20260505201337 | 81 | 215 | 1.0 | 5.0 | 0.00 | 0.00 | 0.00 | 88 | 1013.2 |
| 20260505200836 | 81 | 269 | 2.0 | 7.0 | 0.00 | 0.00 | 0.00 | 87 | 1013.3 |
| 20260505200332 | 81 | 67 | 0.0 | 5.0 | 0.00 | 0.00 | 0.00 | 88 | 1013.4 |
| 20260505195828 | 81 | 227 | 3.0 | 5.0 | 0.00 | 0.00 | 0.00 | 89 | 1013.1 |
| 20260505195325 | 81 | 231 | 2.0 | 8.0 | 0.00 | 0.00 | 0.00 | 88 | 1013.2 |
| 20260505194822 | 81 | 199 | 2.0 | 12.0 | 0.00 | 0.00 | 0.00 | 88 | 1013.3 |
| 20260505194319 | 82 | 221 | 1.0 | 6.0 | 0.00 | 0.00 | 0.00 | 87 | 1013.3 |
| 20260505193814 | 82 | 163 | 2.0 | 3.0 | 0.00 | 0.00 | 0.00 | 88 | 1013.5 |
| 20260505193313 | 81 | 271 | 3.0 | 6.0 | 0.00 | 0.00 | 0.00 | 87 | 1013.3 |
| 20260505192810 | 82 | 260 | 3.0 | 5.0 | 0.00 | 0.00 | 0.00 | 87 | 1013.4 |
| 20260505192310 | 82 | 214 | 2.0 | 5.0 | 0.00 | 0.00 | 0.00 | 88 | 1013.5 |
| 20260505191806 | 80 | 260 | 0.0 | 7.0 | 0.00 | 0.00 | 0.00 | 91 | 1013.7 |
| 20260505191304 | 79 | 155 | 2.0 | 5.0 | 0.00 | 0.00 | 0.00 | 92 | 1013.6 |
| 20260505190800 | 79 | 218 | 2.0 | 9.0 | 0.00 | 0.00 | 0.00 | 91 | 1013.5 |
| 20260505190256 | 80 | 142 | 1.0 | 6.0 | 0.00 | 0.00 | 0.00 | 91 | 1013.5 |
| 20260505185752 | 80 | 300 | 1.0 | 7.0 | 0.00 | 0.00 | 0.00 | 90 | 1013.9 |
| 20260505185248 | 80 | 123 | 1.0 | 5.0 | 0.00 | 0.00 | 0.00 | 91 | 1013.8 |
| 20260505184744 | 79 | 240 | 6.0 | 9.0 | 0.00 | 0.00 | 0.00 | 91 | 1013.6 |
| 20260505184242 | 79 | 121 | 2.0 | 4.0 | 0.00 | 0.00 | 0.00 | 92 | 1014.0 |
| 20260505183738 | 79 | 215 | 1.0 | 5.0 | 0.00 | 0.00 | 0.00 | 92 | 1013.9 |
| 20260505183236 | 79 | 208 | 3.0 | 6.0 | 0.00 | 0.00 | 0.00 | 93 | 1013.9 |
| 20260505182732 | 79 | 212 | 0.0 | 5.0 | 0.00 | 0.00 | 0.00 | 93 | 1014.0 |
| 20260505182229 | 79 | 335 | 1.0 | 3.0 | 0.00 | 0.00 | 0.00 | 94 | 1014.2 |
| 20260505181725 | 79 | 203 | 1.0 | 5.0 | 0.00 | 0.00 | 0.00 | 92 | 1014.2 |
| 20260505181223 | 79 | 237 | 2.0 | 5.0 | 0.00 | 0.00 | 0.00 | 91 | 1014.0 |
| 20260505180720 | 80 | 302 | 2.0 | 4.0 | 0.00 | 0.00 | 0.00 | 89 | 1014.0 |
| 20260505180217 | 80 | 145 | 1.0 | 4.0 | 0.00 | 0.00 | 0.00 | 89 | 1013.8 |
| 20260505175713 | 80 | 189 | 1.0 | 7.0 | 0.00 | 0.00 | 0.00 | 89 | 1013.8 |
| 20260505175209 | 80 | 156 | 2.0 | 6.0 | 0.00 | 0.00 | 0.00 | 90 | 1014.1 |
| 20260505174706 | 79 | 266 | 1.0 | 10.0 | 0.00 | 0.00 | 0.00 | 91 | 1014.0 |
| 20260505174203 | 79 | 219 | 1.0 | 7.0 | 0.00 | 0.00 | 0.00 | 91 | 1014.0 |
| 20260505173659 | 78 | 230 | 1.0 | 7.0 | 0.00 | 0.00 | 0.00 | 92 | 1014.1 |
| 20260505173155 | 79 | 317 | 2.0 | 7.0 | 0.00 | 0.00 | 0.00 | 91 | 1014.4 |
| 20260505172653 | 79 | 243 | 0.0 | 6.0 | 0.00 | 0.00 | 0.00 | 91 | 1014.0 |
| 20260505172150 | 79 | 204 | 1.0 | 11.0 | 0.00 | 0.00 | 0.00 | 91 | 1014.1 |
| 20260505171649 | 79 | 211 | 0.0 | 6.0 | 0.00 | 0.00 | 0.00 | 92 | 1014.3 |
| 20260505171147 | 80 | 199 | 2.0 | 7.0 | 0.00 | 0.00 | 0.00 | 89 | 1014.4 |
| 20260505170644 | 79 | 257 | 3.0 | 4.0 | 0.00 | 0.00 | 0.00 | 90 | 1014.4 |
| 20260505170140 | 79 | 273 | 0.0 | 3.0 | 0.00 | 0.00 | 0.00 | 91 | 1014.5 |
| 20260505165635 | 79 | 191 | 2.0 | 6.0 | 0.00 | 0.00 | 0.00 | 91 | 1014.4 |
| 20260505165132 | 78 | 129 | 6.0 | 9.0 | 0.00 | 0.00 | 0.00 | 91 | 1014.3 |
| 20260505164627 | 79 | 226 | 2.0 | 5.0 | 0.00 | 0.00 | 0.00 | 91 | 1014.3 |
| 20260505164125 | 79 | 215 | 2.0 | 10.0 | 0.00 | 0.00 | 0.00 | 90 | 1014.3 |
| 20260505163623 | 79 | 236 | 1.0 | 6.0 | 0.00 | 0.00 | 0.00 | 90 | 1014.2 |
| 20260505163120 | 79 | 222 | 0.0 | 4.0 | 0.00 | 0.00 | 0.00 | 89 | 1014.2 |
| 20260505162617 | 79 | 149 | 1.0 | 5.0 | 0.00 | 0.00 | 0.00 | 89 | 1014.2 |
| 20260505162115 | 79 | 260 | 1.0 | 4.0 | 0.00 | 0.00 | 0.00 | 89 | 1014.3 |
| 20260505161612 | 79 | 250 | 2.0 | 5.0 | 0.00 | 0.00 | 0.00 | 90 | 1014.4 |
| 20260505161109 | 79 | 213 | 1.0 | 5.0 | 0.00 | 0.00 | 0.00 | 90 | 1014.3 |
| 20260505160607 | 78 | 226 | 3.0 | 7.0 | 0.00 | 0.00 | 0.00 | 89 | 1014.1 |
| 20260505160104 | 79 | 84 | 2.0 | 5.0 | 0.00 | 0.00 | 0.00 | 88 | 1014.0 |
| 20260505153044 | 80 | 184 | 1.0 | 4.0 | 0.00 | 0.00 | 0.00 | 86 | 1013.9 |
| 20260505152540 | 79 | 244 | 0.0 | 8.0 | 0.00 | 0.00 | 0.00 | 87 | 1014.0 |
| 20260505152036 | 79 | 272 | 4.0 | 5.0 | 0.00 | 0.00 | 0.00 | 87 | 1013.8 |
| 20260505151531 | 79 | 255 | 0.0 | 3.0 | 0.00 | 0.00 | 0.00 | 88 | 1013.9 |
| 20260505151029 | 79 | 190 | 2.0 | 7.0 | 0.00 | 0.00 | 0.00 | 88 | 1013.9 |
| 20260505150525 | 80 | 224 | 0.0 | 5.0 | 0.00 | 0.00 | 0.00 | 87 | 1013.9 |
| 20260505140450 | 77 | 225 | 3.0 | 5.0 | 0.00 | 0.00 | 0.00 | 92 | 1014.1 |
| 20260505124903 | 75 | 232 | 0.0 | 3.0 | 0.00 | 0.00 | 0.00 | 95 | 1013.7 |
| 20260505124401 | 74 | 116 | 3.0 | 6.0 | 0.00 | 0.00 | 0.00 | 95 | 1013.5 |
| 20260505123856 | 74 | 191 | 2.0 | 5.0 | 0.00 | 0.00 | 0.00 | 95 | 1013.6 |
| 20260505123353 | 74 | 195 | 0.0 | 3.0 | 0.00 | 0.00 | 0.00 | 95 | 1013.4 |
| 20260505122849 | 74 | 166 | 2.0 | 5.0 | 0.00 | 0.00 | 0.00 | 95 | 1013.3 |
| 20260505122347 | 74 | 315 | 0.0 | 4.0 | 0.00 | 0.00 | 0.00 | 95 | 1013.3 |
| 20260505121843 | 74 | 140 | 4.0 | 9.0 | 0.00 | 0.00 | 0.00 | 95 | 1013.1 |
| 20260505121340 | 74 | 154 | 3.0 | 8.0 | 0.00 | 0.00 | 0.00 | 95 | 1013.4 |
| 20260505120836 | 74 | 203 | 1.0 | 5.0 | 0.00 | 0.00 | 0.00 | 95 | 1013.4 |
| 20260505120332 | 74 | 183 | 0.0 | 3.0 | 0.00 | 0.00 | 0.00 | 95 | 1013.5 |
| 20260505115831 | 74 | 123 | 1.0 | 3.0 | 0.00 | 0.00 | 0.00 | 95 | 1013.7 |
| 20260505115329 | 74 | 142 | 0.0 | 5.0 | 0.00 | 0.00 | 0.00 | 95 | 1013.3 |
| 20260505114826 | 74 | 114 | 1.0 | 5.0 | 0.00 | 0.00 | 0.00 | 95 | 1013.4 |
| 20260505114323 | 73 | 119 | 1.0 | 5.0 | 0.00 | 0.00 | 0.00 | 95 | 1013.3 |
| 20260505113819 | 73 | 160 | 1.0 | 7.0 | 0.00 | 0.00 | 0.00 | 95 | 1013.6 |
| 20260505113315 | 73 | 132 | 0.0 | 7.0 | 0.00 | 0.00 | 0.00 | 95 | 1013.1 |
| 20260505112811 | 73 | 222 | 4.0 | 5.0 | 0.00 | 0.00 | 0.00 | 95 | 1013.4 |
| 20260505112309 | 73 | 234 | 0.0 | 3.0 | 0.00 | 0.00 | 0.00 | 95 | 1013.2 |
| 20260505111805 | 73 | 192 | 1.0 | 3.0 | 0.00 | 0.00 | 0.00 | 95 | 1013.4 |
| 20260505111300 | 73 | 152 | 0.0 | 3.0 | 0.00 | 0.00 | 0.00 | 95 | 1013.3 |
| 20260505110756 | 73 | 261 | 0.0 | 3.0 | 0.00 | 0.00 | 0.00 | 95 | 1013.5 |
| 20260505110254 | 73 | 175 | 0.0 | 3.0 | 0.00 | 0.00 | 0.00 | 94 | 1013.6 |
| 20260505101728 | 73 | 100 | 0.0 | 4.0 | 0.00 | 0.00 | 0.00 | 94 | 1013.3 |
| 20260505101224 | 73 | 179 | 2.0 | 6.0 | 0.00 | 0.00 | 0.00 | 94 | 1013.3 |
| 20260505100720 | 73 | 129 | 3.0 | 3.0 | 0.00 | 0.00 | 0.00 | 94 | 1013.1 |
| 20260505100217 | 73 | 125 | 5.0 | 9.0 | 0.00 | 0.00 | 0.00 | 94 | 1013.3 |
| 20260505095712 | 73 | 221 | 1.0 | 4.0 | 0.00 | 0.00 | 0.00 | 94 | 1013.2 |
| 20260505095211 | 73 | 178 | 2.0 | 4.0 | 0.00 | 0.00 | 0.00 | 94 | 1013.3 |
| 20260505094706 | 73 | 233 | 2.0 | 4.0 | 0.00 | 0.00 | 0.00 | 94 | 1013.3 |
| 20260505094203 | 73 | 242 | 0.0 | 5.0 | 0.00 | 0.00 | 0.00 | 94 | 1013.5 |
| 20260505093659 | 73 | 127 | 0.0 | 2.0 | 0.00 | 0.00 | 0.00 | 94 | 1013.6 |
| 20260505093157 | 73 | 131 | 1.0 | 3.0 | 0.00 | 0.00 | 0.00 | 94 | 1013.6 |
| 20260505092653 | 73 | 212 | 1.0 | 3.0 | 0.00 | 0.00 | 0.00 | 94 | 1013.5 |
| 20260505092152 | 73 | 209 | 0.0 | 3.0 | 0.00 | 0.00 | 0.00 | 94 | 1013.6 |
| 20260505091649 | 73 | 224 | 0.0 | 2.0 | 0.00 | 0.00 | 0.00 | 94 | 1013.5 |
| 20260505091147 | 73 | 217 | 1.0 | 4.0 | 0.00 | 0.00 | 0.00 | 94 | 1013.8 |
| 20260505090644 | 73 | 230 | 1.0 | 7.0 | 0.00 | 0.00 | 0.00 | 94 | 1013.7 |
| 20260505090142 | 73 | 111 | 1.0 | 3.0 | 0.00 | 0.00 | 0.00 | 93 | 1013.6 |
| 20260505085639 | 73 | 268 | 0.0 | 5.0 | 0.00 | 0.00 | 0.00 | 93 | 1013.5 |
| 20260505085137 | 73 | 97 | 3.0 | 4.0 | 0.00 | 0.00 | 0.00 | 93 | 1013.6 |